Wind_Speed
29 28 29 29 28 28 28 28 29 29 29 29 28 27 26 26 26 27 27 28 28 28 26 25 25 25 24 23 23 23 24 24 24 24 25 26 26 26 27 27 26 26 25 25
31 30 31 31 31 31 30 31 31 31 32 31 30 28 28 29 29 29 30 30 30 29 27 27 27 27 27 26 25 25 25 26 27 27 28 29 29 29 29 29 28 28 27 27
32 31 32 34 33 34 33 32 33 32 31 32 33 31 29 30 30 30 30 30 31 30 29 29 29 29 27 27 27 27 27 29 30 30 30 30 31 30 30 30 31 30 29 28
33 32 35 32 33 34 34 32 32 32 32 33 34 33 33 32 31 32 31 31 30 29 29 29 29 29 29 29 29 30 30 30 31 31 32 32 32 32 31 31 32 32 31 30
34 34 34 33 32 33 33 32 31 31 31 32 33 33 33 33 33 33 33 33 32 32 32 32 33 32 31 31 32 33 32 32 32 33 33 33 33 33 33 32 32 32 32 31
33 34 35 33 32 31 33 34 32 32 32 32 33 34 34 35 36 36 35 34 33 33 33 33 33 33 34 34 34 34 35 34 34 34 34 34 34 34 34 34 34 35 34 33
33 34 34 33 31 31 34 34 33 34 34 35 36 36 37 37 38 38 36 35 35 35 35 34 34 34 34 34 34 34 34 35 35 36 36 36 35 35 35 35 35 36 35 34
32 32 33 32 32 32 33 34 34 34 35 35 36 37 36 36 37 38 37 37 37 37 36 35 35 34 34 34 34 35 35 36 36 37 37 36 36 36 35 35 35 36 35 35
31 32 32 32 32 32 33 34 34 34 34 34 34 35 36 37 37 37 38 38 38 39 38 37 36 35 35 35 36 37 37 37 37 37 37 36 36 35 35 36 35 35 35 35
31 32 32 31 30 31 32 33 32 33 34 35 34 34 35 36 37 38 38 38 37 36 36 36 36 37 37 37 38 38 38 37 37 37 37 36 36 36 36 36 35 35 35 33
32 32 33 32 32 32 33 33 32 32 33 33 34 34 34 34 35 36 36 37 36 36 35 35 36 36 37 38 38 38 38 37 37 37 37 36 36 36 36 37 36 35 34 33
32 32 32 32 32 32 31 30 30 31 32 33 33 34 34 35 35 36 35 35 35 34 34 35 35 36 36 37 37 37 37 37 37 37 37 37 37 36 36 36 36 34 33 33
31 31 31 32 31 31 31 31 32 32 32 32 32 33 33 34 34 34 34 34 33 33 34 35 35 36 36 38 39 38 37 37 37 37 37 37 36 36 35 34 34 33 33 32
30 30 30 30 30 30 31 32 32 32 32 31 32 32 33 33 34 34 34 34 33 34 35 36 36 37 37 38 38 37 36 36 36 36 36 35 35 35 34 34 33 32 32 31
28 29 30 31 30 31 31 31 32 33 32 31 31 31 32 33 33 33 33 33 33 34 34 35 35 35 35 36 36 35 35 35 35 34 34 33 33 33 33 32 31 30 30 30
28 29 29 30 30 29 29 30 31 32 31 30 30 31 32 33 33 33 33 33 33 33 33 33 33 33 33 34 34 34 34 34 34 33 32 31 32 32 31 30 30 29 29 29
27 27 28 28 27 28 29 29 30 31 31 31 30 30 31 32 32 32 31 31 32 32 33 33 33 33 33 33 34 33 33 32 32 31 31 31 31 31 31 31 31 30 29 29
25 26 26 26 27 27 28 27 28 29 29 29 28 29 30 30 30 30 30 30 31 31 31 32 33 33 32 32 32 32 32 31 30 30 30 31 30 29 30 30 30 29 29 28
25 25 25 26 26 27 27 26 27 28 28 27 27 27 28 29 30 30 30 29 30 30 30 31 31 31 31 30 30 30 30 29 29 29 29 29 29 28 28 27 27 27 27 27
23 24 24 25 25 25 26 26 26 27 26 26 26 26 27 28 28 28 28 28 28 28 28 29 29 29 29 28 28 28 28 27 27 28 27 27 27 26 26 25 25 25 25 25
22 23 24 24 24 25 25 25 25 25 24 25 25 26 26 26 26 26 27 27 27 27 26 26 26 26 26 26 26 26 26 26 25 25 25 25 25 25 25 24 24 25 24 24
23 23 24 23 23 23 24 24 23 23 23 23 24 24 24 25 25 26 26 26 26 26 25 25 24 24 24 24 24 23 23 23 23 23 23 23 24 24 23 23 24 24 23 24
22 22 23 23 22 22 21 21 21 22 22 23 23 23 24 24 25 25 25 24 24 24 24 23 23 23 23 22 22 21 21 21 21 21 22 22 22 22 23 23 24 24 24 23
21 22 22 22 21 21 21 21 20 20 21 21 22 22 23 23 24 24 24 24 24 23 23 23 23 22 22 22 22 22 22 22 21 20 21 21 22 22 22 22 23 23 24 24
20 20 20 20 20 20 20 20 20 20 20 21 21 21 22 22 22 22 22 22 23 23 23 23 23 23 23 23 23 23 23 22 22 22 22 22 22 22 23 23 23 23 24 24
19 19 19 20 20 21 20 20 20 20 21 21 22 22 22 23 22 22 22 23 23 23 23 23 23 24 24 24 24 23 23 23 23 22 22 23 23 23 23 22 22 23 24 23
18 18 18 18 18 18 18 19 20 20 20 21 22 22 22 22 22 22 22 23 23 23 23 23 23 23 24 24 24 24 23 23 22 22 23 23 23 23 22 22 23 23 23 22
Wind_Direction
245 242 240 240 240 242 245 249 253 255 255 257 259 264 266 267 269 271 274 274 278 282 280 281 283 284 286 288 291 293 293 294 296 296 296 296 297 299 299 299 298 296 295 296
246 245 245 243 245 248 248 249 252 255 255 258 260 262 265 267 268 271 273 272 274 277 279 284 283 284 284 285 287 288 289 291 293 294 294 295 296 297 299 299 298 298 297 296
249 248 249 247 247 249 250 253 255 255 256 259 261 261 264 266 268 272 273 275 277 279 279 279 280 282 283 281 284 286 287 289 290 291 293 294 294 295 297 297 296 296 297 297
251 251 249 249 249 250 252 253 256 256 256 258 260 262 264 266 271 273 273 275 277 278 277 276 278 278 279 280 283 285 286 287 287 288 290 293 294 294 295 295 294 295 295 297
250 251 251 250 250 253 254 254 257 257 259 261 263 264 265 267 269 271 273 276 277 278 277 278 279 281 280 279 281 284 285 286 287 288 289 291 292 292 292 293 294 295 295 295
252 254 253 250 250 253 255 257 259 260 261 264 265 266 268 268 270 271 273 275 279 277 277 279 280 281 282 281 282 284 285 285 286 287 287 289 290 291 291 291 292 293 293 293
252 254 255 252 254 254 255 259 262 263 263 265 269 269 269 271 273 273 275 277 280 281 279 279 279 280 281 282 284 285 285 285 286 286 287 287 288 289 289 289 290 291 291 291
253 256 256 255 257 258 259 261 263 263 264 266 269 270 272 275 276 276 276 278 280 281 282 280 280 281 281 281 283 284 284 284 284 285 286 286 287 288 288 288 289 290 290 290
256 259 261 258 259 261 261 263 264 264 266 267 269 271 273 277 279 280 280 281 282 282 280 280 281 281 282 282 283 283 283 283 284 285 284 284 286 288 288 288 289 289 290 288
258 260 261 262 263 263 265 266 267 268 269 270 272 273 274 275 277 279 280 280 280 279 279 278 280 281 281 282 282 282 281 282 284 284 284 284 286 288 288 289 288 289 289 289
258 262 263 263 264 265 265 265 267 268 269 271 273 275 276 276 279 281 279 278 280 280 280 281 283 282 282 282 282 281 282 282 285 285 285 286 287 287 287 287 287 286 286 286
260 262 264 264 263 264 265 266 268 270 272 274 276 277 278 280 280 281 281 281 280 282 282 283 283 284 284 283 283 283 283 284 285 284 285 286 286 286 286 286 286 286 285 285
263 264 265 265 264 266 267 269 271 272 273 275 276 277 279 279 279 280 281 282 281 282 283 284 284 284 285 284 283 284 285 284 283 284 285 285 285 284 284 284 284 285 286 285
264 267 268 265 265 267 270 273 274 273 272 273 275 277 278 279 279 279 281 283 284 284 284 285 284 284 285 285 284 284 284 284 283 284 285 285 284 283 283 284 284 285 286 284
265 267 268 267 266 268 272 274 275 275 273 273 274 275 277 279 279 281 282 283 284 284 285 285 285 286 286 286 286 287 287 286 285 284 283 283 282 283 284 284 283 283 285 284
267 269 270 269 268 269 272 273 275 275 275 274 274 276 278 279 280 282 282 283 284 285 287 287 287 287 288 289 289 289 289 287 285 284 282 281 281 282 283 283 283 281 281 283
265 267 269 268 269 271 273 274 274 274 274 276 275 277 279 280 281 282 283 285 286 287 288 288 288 287 287 288 288 288 288 286 285 284 282 283 283 283 282 283 283 283 282 282
264 266 269 272 272 273 273 273 273 274 277 276 277 278 279 281 282 283 283 284 286 287 288 289 288 287 286 287 287 287 286 285 285 284 283 282 283 283 283 283 283 283 282 280
266 268 270 272 274 274 273 272 273 276 277 277 278 279 280 282 283 284 284 285 287 288 288 289 289 288 287 288 288 288 287 285 285 285 284 282 282 282 283 283 282 281 281 281
268 267 269 271 274 275 274 274 275 278 278 278 279 281 282 283 284 284 285 286 288 289 290 290 291 291 289 288 288 288 288 286 286 285 283 282 282 282 283 282 281 282 282 282
269 269 271 275 276 276 276 276 277 277 279 282 283 283 284 284 285 286 287 287 287 288 290 292 293 294 293 292 290 289 289 287 286 285 283 282 282 282 283 282 282 282 280 280
271 273 273 274 275 275 276 277 278 280 282 283 284 285 286 286 286 287 289 289 288 288 290 293 294 294 294 294 294 293 291 289 288 286 285 283 284 285 284 283 283 283 280 280
275 275 275 275 276 277 279 280 282 283 284 285 286 287 288 290 290 289 289 289 289 289 290 291 292 293 293 295 296 296 295 292 290 289 287 286 287 287 287 286 284 282 282 284
277 275 275 275 275 277 280 283 284 285 286 287 288 289 289 290 291 290 290 289 289 288 288 289 290 290 290 292 295 297 297 295 293 293 291 290 290 290 290 289 287 286 286 286
278 275 276 277 277 279 282 283 284 286 287 288 289 290 291 292 292 292 291 291 291 290 290 291 291 291 291 292 293 294 294 293 292 291 291 292 292 292 292 291 290 289 289 288
277 277 279 279 278 279 282 285 287 287 287 289 290 290 290 290 291 291 290 291 292 293 292 292 292 293 294 294 294 293 292 291 291 290 289 292 292 292 292 292 291 290 289 287
275 277 279 279 279 280 283 286 286 287 287 287 287 289 289 289 290 291 291 291 291 291 291 292 293 295 296 296 296 296 295 293 291 291 291 292 292 292 292 292 291 291 289 288
Height
5872 5874 5875 5877 5878 5879 5880 5880 5881 5881 5882 5883 5883 5884 5884 5884 5884 5884 5883 5882 5881 5880 5878 5876 5876 5875 5875 5873 5872 5870 5868 5866 5864 5862 5860 5858 5855 5853 5850 5847 5845 5842 5840 5837
5865 5868 5869 5870 5871 5872 5873 5873 5874 5874 5875 5876 5876 5877 5877 5877 5877 5876 5875 5874 5873 5873 5871 5870 5869 5868 5867 5866 5865 5863 5862 5860 5858 5856 5853 5851 5848 5846 5843 5840 5837 5835 5832 5830
5858 5860 5861 5862 5864 5864 5865 5865 5866 5867 5869 5869 5869 5869 5869 5870 5869 5868 5866 5866 5865 5864 5864 5863 5862 5861 5860 5858 5857 5856 5855 5853 5850 5848 5846 5843 5841 5838 5836 5833 5830 5827 5824 5822
5849 5852 5852 5857 5856 5856 5857 5857 5859 5860 5861 5862 5862 5862 5861 5861 5860 5859 5858 5857 5856 5856 5856 5855 5854 5853 5852 5850 5849 5848 5846 5844 5842 5840 5837 5835 5833 5830 5827 5824 5821 5818 5816 5813
5840 5841 5843 5846 5847 5848 5849 5850 5851 5852 5853 5854 5854 5853 5853 5853 5852 5851 5850 5849 5848 5848 5847 5846 5845 5844 5842 5841 5840 5838 5837 5835 5833 5831 5829 5827 5824 5821 5818 5815 5812 5810 5807 5805
5832 5832 5834 5838 5839 5840 5842 5841 5843 5844 5844 5845 5845 5845 5846 5844 5843 5842 5841 5841 5840 5839 5838 5836 5836 5835 5834 5832 5831 5829 5828 5826 5824 5822 5820 5818 5815 5812 5809 5806 5803 5801 5799 5796
5823 5824 5825 5829 5830 5832 5834 5834 5835 5835 5836 5836 5836 5836 5836 5835 5834 5833 5832 5832 5831 5830 5829 5827 5826 5825 5824 5823 5821 5820 5818 5816 5814 5812 5810 5807 5805 5802 5799 5796 5794 5791 5789 5787
5816 5817 5820 5821 5822 5823 5824 5825 5826 5826 5826 5827 5827 5827 5826 5825 5824 5823 5822 5822 5821 5820 5818 5817 5816 5815 5814 5813 5812 5809 5807 5805 5803 5801 5799 5796 5794 5791 5788 5786 5783 5781 5779 5777
5809 5811 5811 5812 5813 5814 5815 5815 5816 5816 5817 5817 5817 5817 5817 5816 5816 5814 5813 5812 5811 5810 5809 5808 5806 5805 5804 5803 5801 5799 5796 5794 5793 5790 5787 5785 5783 5781 5778 5775 5773 5771 5769 5766
5801 5801 5803 5804 5805 5805 5806 5806 5807 5806 5807 5807 5806 5807 5807 5807 5806 5805 5803 5802 5800 5799 5798 5797 5796 5794 5792 5791 5789 5787 5785 5783 5781 5779 5777 5775 5773 5771 5768 5766 5763 5761 5758 5756
5792 5794 5794 5795 5796 5796 5797 5797 5797 5797 5797 5797 5797 5797 5797 5796 5795 5794 5792 5792 5790 5789 5787 5786 5784 5783 5781 5779 5776 5775 5772 5771 5770 5767 5765 5763 5762 5760 5757 5755 5752 5750 5748 5746
5784 5785 5785 5786 5787 5787 5787 5787 5787 5788 5788 5787 5787 5787 5786 5785 5784 5783 5782 5780 5779 5777 5776 5774 5773 5770 5769 5767 5764 5762 5761 5760 5758 5756 5754 5753 5750 5749 5746 5744 5741 5739 5737 5735
5776 5776 5777 5777 5778 5778 5778 5778 5778 5778 5778 5778 5778 5777 5776 5774 5773 5772 5771 5770 5768 5767 5765 5764 5762 5759 5757 5755 5753 5751 5749 5748 5747 5745 5743 5741 5739 5737 5736 5733 5731 5728 5726 5724
5768 5768 5768 5768 5768 5768 5768 5769 5769 5768 5768 5768 5768 5767 5766 5765 5764 5763 5761 5760 5758 5756 5755 5752 5750 5747 5745 5742 5740 5738 5737 5736 5734 5733 5731 5729 5728 5725 5724 5723 5721 5718 5716 5713
5759 5759 5759 5759 5759 5760 5760 5760 5759 5759 5759 5758 5758 5757 5756 5755 5754 5753 5751 5750 5748 5746 5744 5741 5738 5735 5732 5730 5728 5725 5724 5723 5722 5721 5720 5718 5717 5715 5714 5712 5710 5708 5707 5705
5752 5751 5751 5750 5751 5751 5752 5751 5751 5750 5750 5749 5748 5747 5747 5745 5744 5743 5742 5740 5738 5735 5733 5730 5727 5725 5722 5720 5717 5715 5713 5712 5711 5710 5709 5708 5707 5705 5704 5702 5701 5699 5698 5697
5744 5744 5743 5743 5743 5743 5743 5743 5742 5741 5741 5740 5739 5738 5737 5736 5735 5733 5732 5730 5727 5725 5723 5720 5717 5715 5712 5710 5708 5706 5704 5702 5701 5700 5699 5698 5697 5695 5694 5693 5691 5690 5689 5687
5736 5736 5736 5735 5735 5735 5735 5734 5734 5733 5732 5730 5729 5729 5728 5727 5726 5724 5722 5720 5718 5716 5713 5710 5707 5705 5702 5700 5698 5696 5694 5693 5692 5690 5689 5688 5687 5686 5684 5683 5682 5681 5679 5678
5728 5729 5729 5728 5728 5727 5727 5726 5725 5724 5723 5722 5721 5720 5719 5718 5717 5715 5713 5711 5709 5707 5704 5701 5698 5695 5693 5691 5689 5687 5685 5683 5682 5681 5680 5679 5678 5677 5676 5674 5673 5672 5671 5670
5721 5721 5721 5721 5720 5719 5719 5718 5717 5716 5715 5714 5713 5712 5711 5709 5708 5706 5705 5702 5700 5698 5695 5692 5690 5687 5685 5683 5680 5678 5676 5675 5673 5672 5671 5670 5669 5669 5667 5666 5665 5664 5662 5661
5714 5714 5714 5713 5713 5712 5711 5710 5709 5708 5708 5706 5705 5704 5703 5701 5699 5698 5696 5694 5692 5690 5688 5685 5682 5680 5677 5675 5672 5670 5668 5667 5665 5664 5663 5662 5661 5660 5659 5658 5657 5655 5654 5653
5707 5707 5706 5706 5706 5705 5704 5703 5702 5701 5700 5698 5697 5696 5695 5693 5692 5690 5688 5687 5685 5683 5681 5678 5675 5673 5671 5668 5666 5664 5662 5660 5659 5657 5656 5655 5654 5653 5651 5650 5649 5648 5646 5645
5700 5699 5699 5699 5699 5698 5697 5696 5695 5694 5692 5691 5690 5688 5687 5686 5684 5682 5681 5679 5677 5675 5673 5671 5669 5667 5665 5662 5660 5658 5656 5654 5652 5651 5650 5648 5647 5646 5644 5643 5641 5640 5638 5637
5693 5692 5692 5692 5692 5691 5690 5689 5688 5687 5685 5684 5683 5682 5680 5679 5677 5675 5673 5672 5670 5668 5666 5665 5663 5661 5659 5657 5655 5653 5650 5648 5647 5645 5643 5642 5640 5639 5637 5635 5634 5632 5630 5629
5686 5686 5685 5685 5684 5684 5683 5682 5681 5680 5679 5678 5677 5675 5674 5672 5670 5668 5666 5665 5663 5661 5660 5658 5656 5654 5652 5650 5648 5646 5644 5642 5641 5639 5637 5636 5634 5632 5630 5628 5626 5624 5622 5621
5680 5680 5679 5678 5677 5677 5676 5676 5675 5674 5673 5671 5670 5668 5667 5665 5664 5662 5660 5658 5656 5654 5653 5651 5649 5647 5645 5643 5641 5640 5638 5635 5634 5632 5630 5628 5626 5624 5622 5620 5618 5616 5615 5613
5674 5674 5673 5672 5672 5671 5670 5669 5668 5667 5666 5665 5663 5662 5660 5658 5657 5655 5653 5651 5649 5647 5646 5644 5642 5640 5638 5636 5634 5632 5630 5628 5626 5625 5623 5621 5619 5617 5615 5613 5611 5609 5607 5605